Weather History for Palestine, TX

Change the Weather History Date:

Wednesday, April 3, 2013

  Actual Average (KTYR) Record (KTYR)
Temperature  
Mean Temperature 54 °F 61 °F  
Max Temperature 61 °F 71 °F 91 °F (1989)
Min Temperature 46 °F 51 °F 29 °F (1987)
Degree Days  
Heating Degree Days 12 6  
Month to date heating degree days 18  
Since 1 July heating degree days 2183  
Cooling Degree Days 0 1  
Month to date cooling degree days 3  
Year to date cooling degree days 36  
Growing Degree Days 4 (Base 50)    
Moisture  
Dew Point 45 °F    
Average Humidity 86    
Maximum Humidity 95    
Minimum Humidity 78    
Precipitation  
Precipitation 0.29 in 0.10 in 2.13 in (1977)
Month to date precipitation 0.31  
Year to date precipitation 11.30  
Snow  
Snow 0.00 in - - ()
Month to date snowfall  
Since 1 July snowfall  
Snow Depth -    
Sea Level Pressure  
Sea Level Pressure 30.04 in    
Wind  
Wind Speed 11 mph (NNE)    
Max Wind Speed 17 mph    
Max Gust Speed 26 mph    
Visibility 10 miles    
Events Rain    
T = Trace of Precipitation, MM = Missing Value Source: NWS Daily Summary

Daily Weather History Graph

Daily Weather History Graph

Search for Another Location

Airport:

Trip Planner

Search our weather history database for the weather conditions in past years. The results will help you decide how hot, cold, wet, or windy it might be!

Date:

Astronomy

Apr. 03, 2013 Rise Set
Actual Time 7:08 AM CDT 7:43 PM CDT
Civil Twilight 6:43 AM CDT 8:08 PM CDT
Nautical Twilight 6:14 AM CDT 8:37 PM CDT
Astronomical Twilight 5:45 AM CDT 9:07 PM CDT
Moon 2:27 AM CDT (4/3) 1:19 PM CDT (4/3)
Length of Visible Light 13h 24m
Length of Day
12h 35m
Last Quarter, 44% of the Moon is Illuminated
Apr 3
Last Quarter
Apr 10
New
Apr 18
First Quarter
Apr 25
Full
May 2
Last Quarter

Hourly Weather History & Observations

Time (CDT) Temp. Windchill Dew Point Humidity Pressure Visibility Wind Dir Wind Speed Gust Speed Precip Events Conditions
12:15 AM 61.0 °F - 57.2 °F 87% 29.95 in 10.0 mi ENE 16.1 mph 23.0 mph N/A Rain Light Rain
12:35 AM 59.4 °F - 54.9 °F 85% 29.95 in 10.0 mi NE 17.3 mph 26.5 mph N/A   Overcast
12:55 AM 54.9 °F - 50.7 °F 86% 29.95 in 10.0 mi NNE 17.3 mph 25.3 mph N/A   Overcast
1:15 AM 53.1 °F - 48.6 °F 85% 29.97 in 10.0 mi NE 17.3 mph 26.5 mph N/A   Overcast
1:35 AM 52.2 °F - 46.9 °F 82% 29.96 in 10.0 mi NNE 15.0 mph 25.3 mph N/A   Overcast
1:55 AM 51.8 °F - 46.0 °F 81% 29.95 in 10.0 mi NE 15.0 mph 20.7 mph N/A   Overcast
2:15 AM 51.8 °F - 45.7 °F 80% 29.96 in 10.0 mi NE 15.0 mph 18.4 mph N/A   Overcast
2:35 AM 51.1 °F - 44.8 °F 79% 29.97 in 10.0 mi NNE 11.5 mph 16.1 mph N/A   Overcast
2:55 AM 50.2 °F - 43.9 °F 79% 29.98 in 10.0 mi NNE 11.5 mph - N/A   Overcast
3:15 AM 50.0 °F - 43.7 °F 79% 29.98 in 10.0 mi NE 11.5 mph - N/A   Overcast
3:35 AM 49.6 °F - 43.3 °F 79% 29.99 in 10.0 mi ENE 9.2 mph - N/A   Overcast
3:55 AM 49.6 °F - 43.2 °F 78% 30.00 in 10.0 mi ENE 6.9 mph - N/A   Overcast
4:15 AM 49.6 °F - 43.3 °F 79% 29.99 in 10.0 mi ENE 6.9 mph - N/A   Overcast
4:35 AM 49.6 °F - 43.5 °F 79% 29.99 in 10.0 mi East 6.9 mph - N/A   Overcast
4:55 AM 49.6 °F - 43.3 °F 79% 29.97 in 10.0 mi ENE 6.9 mph - N/A   Overcast
5:15 AM 49.6 °F - 43.2 °F 78% 29.96 in 10.0 mi ENE 5.8 mph - N/A   Overcast
5:35 AM 49.3 °F - 43.0 °F 79% 29.95 in 10.0 mi NNE 8.1 mph - N/A   Overcast
5:55 AM 49.1 °F - 43.0 °F 79% 29.98 in 10.0 mi NNW 11.5 mph - N/A   Overcast
6:15 AM 48.6 °F - 42.8 °F 80% 29.99 in 10.0 mi North 11.5 mph 18.4 mph N/A   Overcast
6:35 AM 48.4 °F - 43.3 °F 83% 30.00 in 10.0 mi North 10.4 mph - N/A   Overcast
6:55 AM 48.2 °F - 44.1 °F 86% 30.03 in 10.0 mi North 10.4 mph 17.3 mph N/A   Overcast
7:15 AM 48.4 °F - 44.6 °F 87% 30.04 in 10.0 mi North 9.2 mph - N/A Rain Light Rain
7:35 AM 47.7 °F - 45.5 °F 92% 30.04 in 5.0 mi NNE 6.9 mph - 0.03 in Rain Rain
7:55 AM 47.5 °F - 45.7 °F 93% 30.05 in 5.0 mi NNE 9.2 mph - 0.06 in Rain Rain
8:15 AM 47.3 °F - 45.7 °F 94% 30.05 in 3.0 mi NNE 8.1 mph - 0.09 in Rain Heavy Rain
8:35 AM 47.3 °F - 45.9 °F 95% 30.03 in 4.0 mi NE 13.8 mph 18.4 mph 0.14 in Rain Rain
8:55 AM 47.3 °F - 45.7 °F 94% 30.04 in 5.0 mi NNE 8.1 mph 17.3 mph 0.20 in Rain Rain
9:15 AM 47.3 °F - 45.7 °F 94% 30.02 in 10.0 mi NE 13.8 mph 21.9 mph 0.02 in Rain Light Rain
9:35 AM 47.7 °F - 45.9 °F 93% 30.02 in 10.0 mi NE 11.5 mph 23.0 mph 0.03 in   Light Drizzle
9:55 AM 48.0 °F - 45.9 °F 92% 30.02 in 10.0 mi ENE 12.7 mph 17.3 mph 0.03 in   Overcast
10:15 AM 48.2 °F - 46.4 °F 93% 30.02 in 10.0 mi East 8.1 mph - N/A   Overcast
10:35 AM 49.3 °F - 47.3 °F 93% 30.07 in 10.0 mi NW 12.7 mph 18.4 mph N/A   Overcast
10:55 AM 48.4 °F - 46.4 °F 93% 30.05 in 10.0 mi North 11.5 mph - N/A   Overcast
11:15 AM 48.4 °F - 46.2 °F 92% 30.07 in 10.0 mi North 8.1 mph - N/A   Overcast
11:35 AM 48.4 °F - 45.7 °F 90% 30.08 in 10.0 mi North 5.8 mph - N/A   Overcast
11:55 AM 48.7 °F - 46.0 °F 90% 30.09 in 10.0 mi NNW 5.8 mph - N/A   Overcast
12:15 PM 48.4 °F - 45.7 °F 90% 30.09 in 10.0 mi North 6.9 mph - N/A   Overcast
12:35 PM 48.6 °F - 45.7 °F 90% 30.07 in 10.0 mi NNE 6.9 mph - N/A   Overcast
12:55 PM 49.1 °F - 45.5 °F 87% 30.06 in 10.0 mi NNE 6.9 mph - N/A   Overcast
1:15 PM 49.1 °F - 45.1 °F 86% 30.07 in 10.0 mi North 6.9 mph - N/A   Overcast
1:35 PM 49.3 °F - 45.5 °F 87% 30.06 in 10.0 mi NNE 6.9 mph - N/A   Overcast
1:55 PM 49.6 °F - 45.7 °F 86% 30.06 in 10.0 mi North 5.8 mph 9.2 mph N/A   Overcast
2:15 PM 49.8 °F - 45.1 °F 84% 30.06 in 10.0 mi NNE 10.4 mph - N/A   Overcast
2:35 PM 50.2 °F - 45.3 °F 83% 30.06 in 10.0 mi NNE 9.2 mph - N/A   Overcast
2:55 PM 50.0 °F - 45.0 °F 83% 30.07 in 10.0 mi North 6.9 mph - N/A   Overcast
3:15 PM 49.3 °F - 44.8 °F 84% 30.07 in 10.0 mi North 6.9 mph - N/A   Overcast
3:35 PM 49.1 °F - 44.8 °F 85% 30.05 in 10.0 mi NNE 6.9 mph - N/A   Overcast
3:55 PM 49.1 °F - 44.8 °F 85% 30.04 in 10.0 mi NNE 10.4 mph - N/A   Overcast
4:15 PM 48.7 °F - 44.4 °F 85% 30.03 in 10.0 mi NNE 9.2 mph - N/A   Overcast
4:35 PM 48.6 °F - 44.4 °F 86% 30.03 in 10.0 mi NNE 6.9 mph 16.1 mph N/A   Overcast
4:55 PM 48.4 °F - 44.1 °F 85% 30.05 in 10.0 mi North 8.1 mph - N/A   Overcast
5:15 PM 48.4 °F - 44.1 °F 85% 30.04 in 10.0 mi North 8.1 mph - N/A   Overcast
5:35 PM 48.2 °F - 43.9 °F 85% 30.04 in 10.0 mi North 6.9 mph - N/A   Overcast
5:55 PM 48.4 °F - 43.9 °F 84% 30.05 in 10.0 mi North 6.9 mph - N/A   Overcast
6:15 PM 48.2 °F - 43.7 °F 84% 30.05 in 10.0 mi North 6.9 mph - N/A   Overcast
6:35 PM 48.2 °F - 43.7 °F 84% 30.05 in 10.0 mi NNE 10.4 mph - N/A   Overcast
6:55 PM 47.8 °F - 43.5 °F 85% 30.06 in 10.0 mi North 8.1 mph - N/A   Overcast
7:15 PM 48.0 °F - 43.9 °F 86% 30.07 in 10.0 mi North 11.5 mph - N/A   Overcast
7:35 PM 47.1 °F - 43.9 °F 88% 30.07 in 5.0 mi North 8.1 mph - N/A   Overcast
7:55 PM 46.6 °F - 43.9 °F 90% 30.08 in 7.0 mi North 4.6 mph - N/A   Overcast
8:15 PM 46.4 °F 44.3 °F 43.9 °F 91% 30.09 in 7.0 mi North 4.6 mph - N/A   Overcast
8:35 PM 46.6 °F - 44.1 °F 91% 30.10 in 10.0 mi North 3.5 mph - N/A   Overcast
8:55 PM 46.6 °F - 44.1 °F 91% 30.11 in 10.0 mi WNW 3.5 mph - N/A   Overcast
9:15 PM 46.6 °F - 44.1 °F 91% 30.11 in 10.0 mi Calm Calm - N/A   Overcast
9:35 PM 46.8 °F - 43.9 °F 90% 30.13 in 10.0 mi North 3.5 mph - N/A   Overcast
9:55 PM 46.9 °F - 43.9 °F 89% 30.11 in 10.0 mi ESE 9.2 mph - N/A   Overcast
10:15 PM 46.9 °F - 43.3 °F 87% 30.12 in 10.0 mi East 3.5 mph - N/A   Overcast
10:35 PM 47.1 °F - 43.0 °F 86% 30.11 in 10.0 mi NE 3.5 mph - N/A   Overcast
10:55 PM 47.3 °F - 42.8 °F 84% 30.13 in 10.0 mi NW 4.6 mph - N/A   Overcast
11:15 PM 47.3 °F - 42.8 °F 84% 30.13 in 10.0 mi North 5.8 mph - N/A   Overcast
11:35 PM 46.9 °F - 42.3 °F 84% 30.14 in 10.0 mi North 6.9 mph - N/A   Overcast
11:55 PM 46.4 °F 42.4 °F 41.4 °F 83% 30.13 in 10.0 mi NNE 8.1 mph - N/A   Overcast